Wind_Speed
19 18 18 19 20 20 20 20 20 20 20 19 19 20 20 20 20 20 19 19 18 17 17 16 15 14 14 13 13 12 11 10 9 8 7 6 5 4 4 5 5 6 7 7
18 18 18 19 20 20 20 20 20 20 20 20 19 20 20 20 20 20 19 19 19 18 18 17 17 16 16 15 15 14 13 12 11 10 9 8 8 8 8 9 10 11 12 13
20 18 18 19 20 20 20 20 20 20 20 20 20 19 20 20 20 20 20 19 19 19 19 19 18 18 18 17 17 16 15 15 14 13 12 11 10 10 10 11 12 13 14 15
21 19 19 19 19 19 19 19 19 19 20 20 20 19 20 20 20 20 20 20 20 20 20 20 20 20 20 19 19 19 18 17 16 15 14 13 12 12 12 13 14 15 15 17
22 20 19 19 19 18 18 18 18 18 19 19 19 19 20 21 21 21 21 21 21 21 21 21 21 20 20 20 20 19 19 18 18 17 16 16 15 14 14 14 14 15 15 17
22 20 19 18 18 18 17 17 17 17 17 18 18 19 21 21 22 22 22 22 22 21 21 21 21 20 20 20 20 20 20 19 19 19 18 17 17 16 15 15 14 14 15 15
20 20 19 18 18 18 17 17 17 16 16 17 17 18 19 20 21 21 21 21 21 21 20 20 20 19 20 20 20 20 20 20 20 20 20 19 18 18 17 16 15 15 14 14
17 18 18 18 17 17 17 16 16 16 16 16 16 17 17 17 18 19 19 19 19 19 19 19 19 19 19 20 20 21 21 22 22 22 21 21 20 20 20 18 18 17 16 15
14 16 17 17 17 17 17 16 15 15 15 14 14 15 15 15 16 17 17 17 18 18 19 19 19 19 19 19 20 21 21 22 23 23 24 23 22 22 22 22 20 20 19 18
10 12 14 15 16 16 17 16 15 14 14 13 13 13 13 13 13 14 15 15 16 17 18 18 19 18 18 19 20 20 21 21 22 23 24 24 24 24 24 24 24 23 22 22
7 9 11 12 14 15 16 15 15 14 13 13 12 11 11 11 11 12 12 13 14 15 16 17 18 18 18 18 19 20 20 20 20 22 23 23 23 24 25 25 26 25 25 25
5 6 8 9 11 12 13 14 14 13 13 12 12 10 9 9 10 10 10 11 12 13 15 16 16 17 17 17 18 20 20 20 19 20 21 22 23 23 24 25 26 26 26 27
6 5 5 7 8 9 10 12 13 12 12 12 11 10 9 8 8 9 9 10 11 12 13 14 14 15 15 16 17 18 19 20 19 19 20 21 22 22 23 23 24 26 27 27
7 6 5 5 6 7 8 9 11 11 11 11 11 11 10 9 9 8 9 9 10 10 11 12 13 13 14 14 15 17 18 19 19 19 19 19 20 21 21 22 22 23 25 26
8 7 7 6 6 6 6 7 8 9 10 10 10 10 10 10 10 9 9 10 9 10 10 11 11 11 12 12 13 14 16 17 18 19 18 18 18 19 20 20 21 22 22 23
9 8 8 8 7 7 7 7 7 7 8 8 9 9 10 10 10 10 10 10 10 10 10 10 10 10 10 10 11 12 13 15 17 18 18 18 18 18 18 18 19 20 20 21
10 10 9 9 9 9 8 8 8 8 8 8 8 9 9 10 10 10 11 11 11 11 11 11 10 10 10 9 10 10 11 13 14 16 17 17 17 17 17 17 17 18 18 19
13 12 12 11 11 11 10 10 10 10 9 9 9 9 9 10 10 10 11 11 11 11 12 12 12 11 9 9 9 9 9 10 11 13 14 15 16 16 16 17 16 16 17 17
17 16 15 14 13 13 13 12 12 12 12 12 12 11 11 11 11 11 11 11 11 11 11 12 12 12 10 9 8 8 8 8 9 10 12 13 14 15 15 15 15 15 15 15
22 21 19 18 17 16 16 15 15 14 14 14 14 14 14 14 13 13 13 12 12 12 12 12 12 12 11 9 9 8 8 8 8 8 9 10 12 13 14 14 14 14 14 14
27 26 24 23 22 21 20 19 18 18 17 17 17 16 16 16 16 16 16 15 14 13 13 13 13 12 12 11 10 9 8 8 8 8 8 8 9 10 11 12 12 12 12 12
33 31 30 29 27 26 25 23 22 22 21 20 20 20 19 19 19 19 18 18 17 16 16 15 14 13 13 12 11 11 10 10 9 9 9 9 9 9 9 9 10 10 10 10
39 37 36 35 34 32 31 29 28 27 26 25 24 23 23 23 22 22 22 21 20 20 19 18 18 16 15 14 13 13 12 12 11 11 11 10 10 9 9 9 8 8 8 8
44 44 43 41 40 39 37 36 35 33 31 30 29 28 27 27 26 26 25 25 24 24 23 22 21 20 19 17 16 15 14 14 13 13 13 13 12 12 11 10 9 8 8 7
49 49 49 48 47 45 44 42 40 39 37 36 35 34 33 32 31 30 30 29 29 28 27 26 25 24 23 21 20 19 18 16 16 15 15 15 15 14 14 13 12 11 10 9
53 54 54 54 53 51 50 48 46 44 43 41 40 39 39 37 36 35 34 34 33 32 31 30 29 28 27 26 24 23 22 20 19 18 17 17 17 17 17 16 15 15 14 13
58 58 58 58 58 57 56 54 52 50 48 47 45 45 44 43 41 40 38 38 37 37 36 35 33 32 31 30 29 28 26 25 24 22 21 19 19 19 19 19 19 19 18 17
Wind_Direction
35 37 41 41 41 43 44 43 46 48 49 52 55 56 57 57 58 61 62 62 63 63 63 65 64 62 61 59 60 59 57 55 51 45 39 30 16 357 333 314 300 289 276 268
38 42 45 44 42 44 45 45 48 51 52 53 54 55 56 57 59 60 60 61 62 62 63 63 63 61 60 58 56 54 51 47 41 34 25 13 358 344 329 316 307 299 292 287
38 42 47 47 43 43 44 44 47 49 50 50 52 53 55 57 59 60 61 61 62 63 65 65 64 62 60 57 54 50 46 41 36 29 20 9 357 345 333 323 313 304 296 289
39 41 47 45 43 43 44 45 47 48 49 50 51 54 56 57 58 59 61 63 65 66 66 65 63 61 59 56 53 50 46 41 35 26 17 7 356 347 336 325 316 308 300 294
38 41 45 44 43 43 44 47 46 48 49 52 53 56 58 58 60 61 63 65 66 66 65 62 61 60 58 55 51 47 42 38 32 26 20 13 4 354 347 339 330 320 311 303
37 39 42 43 44 44 44 48 46 47 50 53 56 57 58 60 62 63 64 65 65 63 62 60 58 56 53 50 46 42 38 34 29 24 20 15 10 5 0 353 344 335 327 320
38 40 42 42 42 43 46 46 46 47 50 53 56 56 58 60 62 63 63 62 61 59 57 55 52 49 47 44 41 38 35 32 28 25 23 22 19 16 11 7 0 354 347 341
37 40 40 40 42 42 44 45 46 46 49 52 55 57 58 60 61 60 60 59 57 54 51 48 46 44 43 40 38 36 36 34 31 30 29 28 26 23 21 20 16 12 6 0
34 37 38 38 38 39 40 43 44 45 46 49 52 55 57 58 57 55 55 54 52 48 45 42 41 40 38 37 36 35 35 35 34 34 34 34 32 30 29 28 26 23 20 16
28 32 34 34 35 36 38 40 42 44 45 46 48 50 52 53 52 51 50 48 46 43 41 39 38 37 37 36 35 34 33 34 34 34 35 35 34 34 33 32 32 31 31 29
17 25 28 30 32 34 35 37 40 42 43 43 43 43 43 44 44 43 42 41 39 38 37 37 36 37 38 37 35 33 33 33 33 33 33 33 33 33 34 34 35 35 35 34
345 4 14 21 26 30 31 33 36 38 39 39 38 39 37 34 32 31 31 30 29 30 31 33 34 35 36 36 35 34 33 32 31 31 32 32 32 33 33 34 35 36 36 36
308 320 342 2 15 22 26 27 29 31 33 33 33 33 30 25 21 19 17 17 17 19 23 27 29 30 31 34 34 33 33 32 31 29 29 30 31 31 32 33 34 36 37 38
288 294 303 325 349 3 11 16 20 22 24 24 24 23 21 16 12 8 7 6 6 8 12 17 20 23 26 28 30 31 31 31 30 29 28 27 27 29 30 32 33 35 37 39
282 287 294 299 310 326 340 352 2 9 13 14 14 13 13 11 8 3 360 358 356 356 360 4 9 13 17 20 23 26 27 28 28 28 27 25 24 25 28 31 33 35 36 38
279 283 288 292 294 297 305 316 327 340 351 358 1 3 3 3 2 360 357 354 353 352 352 354 357 0 4 10 14 18 21 23 25 26 27 26 24 24 25 28 31 33 36 38
271 276 281 284 288 289 290 293 299 306 318 329 337 344 349 351 352 352 352 350 348 349 350 350 349 349 353 357 2 8 13 16 19 21 23 24 24 24 25 27 29 32 34 37
261 266 272 277 280 283 285 285 286 288 293 301 310 317 324 331 337 341 343 344 344 345 347 347 345 344 344 344 346 352 360 7 12 15 19 21 22 23 24 26 28 31 33 36
255 258 262 267 272 276 279 280 280 281 282 284 288 294 301 307 314 322 328 334 338 339 339 341 342 343 340 336 333 336 342 350 359 7 12 15 17 20 22 24 26 29 32 35
254 256 258 261 264 268 271 274 276 276 277 279 280 282 286 290 296 302 308 315 321 327 329 331 334 337 334 329 325 324 326 330 336 347 358 5 10 15 17 20 22 26 29 33
253 255 256 258 260 263 265 268 270 272 274 275 276 277 279 282 285 289 293 299 304 308 313 319 324 327 327 323 317 314 315 317 317 322 332 343 353 1 8 12 15 19 24 28
253 254 255 256 258 259 261 264 265 267 269 272 273 275 276 277 279 282 284 288 292 296 299 302 306 311 314 315 313 307 303 304 304 304 307 316 326 337 347 356 3 8 13 18
254 255 255 256 256 257 259 260 261 263 266 268 270 271 273 274 275 277 278 280 282 285 288 291 293 295 299 302 305 303 299 295 294 292 291 294 301 308 318 327 337 347 356 1
253 255 256 256 256 257 257 258 259 261 263 265 267 268 269 270 271 273 274 276 277 279 280 282 284 286 287 288 291 295 295 292 289 287 284 282 284 289 294 301 308 315 323 332
249 251 253 254 255 256 257 257 258 260 261 262 264 266 267 267 269 270 271 272 273 274 276 277 278 279 280 281 282 282 284 287 287 284 282 279 276 276 279 283 287 292 296 299
246 248 250 252 254 255 256 257 258 258 260 261 262 264 265 266 266 267 269 269 270 270 271 272 273 275 275 276 276 276 276 277 279 281 280 278 275 273 271 273 275 278 280 283
248 248 250 251 253 254 256 256 257 257 258 259 260 261 263 264 264 265 265 266 267 268 268 269 270 270 271 272 273 272 272 271 272 272 274 275 275 272 270 268 268 270 272 273
Height
5863 5859 5855 5852 5848 5844 5841 5837 5833 5830 5826 5823 5820 5817 5814 5810 5807 5805 5803 5801 5799 5797 5795 5794 5793 5792 5791 5790 5789 5788 5787 5786 5785 5784 5783 5782 5781 5780 5779 5779 5778 5777 5776 5775
5866 5862 5858 5855 5851 5847 5844 5840 5837 5834 5831 5827 5824 5821 5818 5815 5812 5810 5808 5806 5804 5802 5800 5799 5797 5796 5795 5794 5792 5791 5790 5788 5787 5786 5784 5783 5782 5780 5779 5778 5776 5775 5774 5773
5869 5865 5861 5858 5854 5850 5847 5844 5841 5838 5836 5832 5829 5826 5823 5820 5817 5815 5812 5810 5808 5806 5805 5803 5802 5800 5799 5797 5795 5794 5792 5790 5789 5787 5785 5783 5781 5780 5778 5776 5774 5772 5771 5770
5871 5868 5864 5863 5857 5854 5850 5847 5845 5842 5839 5836 5834 5831 5828 5825 5822 5819 5817 5815 5813 5811 5810 5808 5806 5804 5803 5801 5799 5797 5795 5793 5791 5788 5786 5784 5781 5779 5776 5774 5771 5769 5767 5765
5874 5870 5867 5864 5860 5856 5854 5851 5848 5846 5843 5840 5838 5835 5832 5829 5827 5824 5822 5820 5818 5816 5815 5813 5811 5809 5807 5805 5803 5800 5798 5795 5793 5790 5787 5784 5780 5777 5774 5771 5768 5765 5763 5760
5877 5873 5870 5868 5863 5860 5858 5854 5852 5849 5847 5844 5842 5840 5837 5834 5831 5829 5827 5825 5823 5821 5819 5817 5815 5813 5811 5809 5806 5803 5801 5798 5794 5791 5787 5784 5780 5777 5773 5770 5766 5763 5760 5756
5880 5876 5873 5870 5866 5863 5861 5859 5855 5852 5850 5848 5845 5843 5841 5838 5836 5834 5832 5830 5828 5826 5824 5822 5820 5818 5815 5812 5810 5807 5803 5800 5796 5792 5789 5785 5781 5778 5774 5769 5765 5761 5758 5754
5882 5879 5878 5872 5869 5866 5864 5860 5857 5855 5853 5851 5849 5846 5844 5842 5840 5838 5837 5835 5833 5831 5828 5826 5824 5821 5819 5816 5813 5809 5806 5802 5799 5795 5791 5787 5783 5779 5774 5770 5766 5761 5757 5753
5885 5883 5879 5875 5872 5869 5865 5862 5860 5857 5855 5853 5851 5850 5848 5846 5844 5842 5840 5838 5836 5834 5832 5829 5827 5824 5822 5819 5816 5812 5809 5805 5802 5798 5793 5789 5785 5781 5777 5772 5768 5763 5758 5754
5885 5882 5880 5877 5874 5871 5867 5864 5862 5860 5858 5856 5854 5852 5851 5849 5847 5845 5843 5841 5839 5837 5835 5832 5830 5827 5825 5822 5818 5815 5812 5809 5805 5801 5797 5793 5789 5784 5780 5775 5770 5766 5761 5756
5885 5883 5880 5878 5875 5873 5870 5867 5864 5862 5860 5858 5856 5854 5853 5851 5849 5848 5846 5844 5842 5840 5838 5835 5833 5830 5827 5824 5821 5818 5815 5811 5808 5804 5800 5796 5792 5788 5783 5779 5774 5770 5765 5760
5885 5883 5881 5879 5877 5874 5871 5869 5866 5864 5861 5860 5858 5856 5854 5853 5851 5849 5848 5846 5844 5842 5840 5838 5835 5833 5830 5827 5824 5821 5818 5814 5811 5807 5804 5800 5796 5792 5787 5783 5779 5774 5769 5764
5883 5882 5881 5879 5877 5875 5872 5870 5868 5865 5863 5861 5859 5857 5856 5854 5852 5851 5849 5848 5846 5844 5842 5840 5837 5835 5832 5830 5827 5824 5820 5817 5814 5810 5807 5803 5799 5796 5792 5788 5783 5779 5774 5769
5881 5880 5879 5878 5876 5874 5873 5871 5869 5866 5864 5862 5860 5859 5857 5855 5853 5852 5850 5848 5847 5845 5843 5841 5839 5837 5834 5832 5829 5826 5823 5820 5817 5813 5810 5806 5803 5799 5795 5791 5787 5783 5779 5775
5879 5878 5877 5876 5875 5874 5872 5871 5869 5867 5865 5863 5861 5859 5858 5856 5854 5852 5850 5849 5847 5845 5844 5842 5840 5838 5836 5833 5831 5828 5825 5822 5819 5816 5812 5809 5806 5802 5799 5795 5791 5788 5784 5780
5875 5874 5874 5873 5872 5871 5871 5869 5868 5867 5865 5863 5862 5860 5858 5856 5854 5853 5851 5849 5847 5845 5844 5842 5840 5838 5836 5834 5832 5830 5827 5824 5821 5818 5815 5812 5809 5805 5802 5798 5795 5792 5788 5785
5871 5870 5870 5870 5869 5869 5868 5867 5866 5865 5864 5863 5861 5860 5858 5856 5854 5852 5851 5849 5847 5845 5843 5842 5840 5838 5836 5834 5833 5831 5828 5826 5823 5820 5817 5814 5811 5808 5805 5802 5799 5795 5792 5789
5866 5866 5866 5866 5865 5865 5865 5864 5863 5863 5862 5861 5860 5858 5857 5855 5854 5852 5850 5848 5846 5845 5843 5841 5839 5837 5836 5834 5832 5831 5829 5827 5825 5822 5819 5817 5814 5811 5808 5805 5802 5799 5796 5793
5860 5860 5861 5861 5860 5860 5860 5860 5859 5859 5858 5858 5857 5856 5855 5854 5852 5851 5849 5847 5846 5844 5842 5840 5838 5836 5835 5833 5832 5830 5829 5827 5825 5823 5821 5819 5816 5813 5810 5808 5805 5802 5799 5797
5852 5853 5854 5854 5855 5855 5855 5855 5855 5854 5854 5853 5853 5852 5851 5851 5849 5848 5847 5845 5844 5842 5841 5839 5837 5835 5834 5832 5831 5829 5828 5827 5825 5824 5822 5820 5817 5815 5812 5810 5807 5805 5803 5800
5844 5845 5846 5847 5848 5848 5848 5849 5849 5848 5848 5848 5847 5847 5847 5846 5845 5844 5843 5842 5841 5840 5839 5837 5836 5834 5832 5831 5829 5828 5827 5826 5824 5823 5822 5820 5818 5816 5814 5812 5809 5807 5805 5803
5834 5835 5837 5838 5839 5840 5840 5841 5841 5841 5841 5841 5841 5841 5841 5840 5840 5839 5838 5838 5837 5836 5835 5834 5833 5832 5830 5829 5827 5826 5825 5824 5823 5821 5820 5819 5817 5816 5814 5812 5810 5808 5806 5805
5822 5824 5826 5827 5829 5830 5831 5832 5832 5833 5833 5834 5834 5834 5834 5833 5833 5833 5832 5832 5832 5831 5830 5829 5828 5828 5827 5825 5824 5823 5822 5821 5820 5819 5818 5817 5816 5815 5813 5812 5810 5809 5807 5805
5808 5810 5812 5814 5816 5818 5819 5821 5822 5823 5824 5824 5825 5825 5825 5825 5825 5825 5825 5825 5824 5824 5824 5823 5823 5822 5821 5821 5820 5819 5818 5817 5816 5815 5815 5814 5813 5812 5811 5810 5809 5808 5806 5805
5793 5795 5796 5799 5801 5803 5805 5807 5810 5811 5813 5814 5814 5815 5815 5816 5816 5816 5816 5816 5816 5816 5816 5816 5815 5815 5815 5814 5814 5814 5813 5812 5812 5811 5810 5810 5809 5808 5808 5807 5806 5805 5804 5803
5776 5778 5780 5782 5785 5788 5790 5793 5795 5797 5799 5801 5802 5802 5803 5804 5805 5806 5806 5806 5806 5806 5806 5807 5807 5807 5807 5807 5807 5807 5806 5806 5806 5805 5805 5804 5804 5803 5803 5803 5802 5802 5801 5800
5757 5760 5763 5765 5768 5771 5773 5776 5779 5782 5784 5786 5788 5788 5789 5790 5792 5793 5794 5794 5795 5795 5796 5796 5797 5797 5797 5797 5798 5798 5798 5798 5798 5798 5798 5798 5797 5797 5797 5796 5796 5796 5796 5795